GW2723 Weather Reports


time (UTC)temp
C
wind
direction
speed
KPH
gust
KPH
rain 1hr
cm
rain 24hr
cm
rain mn
cm
humidity
%
barometer
mb
20260502224024 22 319 3.2 12.9 0.00 0.00 0.00 36 1017.1
20260502223526 22 278 3.2 8.0 0.00 0.00 0.00 39 1017.0
20260502223038 22 337 0.0 9.7 0.00 0.00 0.00 41 1017.1
20260502222524 22 18 3.2 11.3 0.00 0.00 0.00 38 1017.1
20260502222024 21 23 4.8 11.3 0.00 0.00 0.00 39 1017.1
20260502221537 21 323 3.2 9.7 0.00 0.00 0.00 38 1017.0
20260502221024 21 21 1.6 11.3 0.00 0.00 0.00 38 1017.1
20260502220524 21 313 3.2 11.3 0.00 0.00 0.00 39 1017.1
20260502220041 22 23 3.2 11.3 0.00 0.00 0.00 40 1017.1
20260502215525 22 36 3.2 11.3 0.00 0.00 0.00 33 1017.0
20260502215023 22 333 4.8 19.3 0.00 0.00 0.00 35 1017.0
20260502214541 22 38 3.2 19.3 0.00 0.00 0.00 37 1017.0
20260502214026 22 341 6.4 19.3 0.00 0.00 0.00 38 1017.1
20260502213524 22 346 3.2 11.3 0.00 0.00 0.00 37 1017.1
20260502213044 22 33 1.6 11.3 0.00 0.00 0.00 42 1017.1
20260502212524 21 330 4.8 11.3 0.00 0.00 0.00 39 1017.2
20260502212025 21 327 1.6 9.7 0.00 0.00 0.00 45 1017.3
20260502211537 21 295 1.6 9.7 0.00 0.00 0.00 43 1017.3
20260502211024 21 292 4.8 14.5 0.00 0.00 0.00 41 1017.4
20260502210524 21 328 1.6 14.5 0.00 0.00 0.00 40 1017.4
20260502210037 21 96 6.4 14.5 0.00 0.00 0.00 43 1017.6
20260502205524 21 295 3.2 12.9 0.00 0.00 0.00 40 1017.6
20260502205024 21 315 1.6 17.7 0.00 0.00 0.00 44 1017.7
20260502204537 21 356 3.2 17.7 0.00 0.00 0.00 42 1017.8
20260502204024 21 15 6.4 14.5 0.00 0.00 0.00 40 1017.9
20260502203524 21 332 3.2 14.5 0.00 0.00 0.00 38 1018.0
20260502203055 21 37 6.4 14.5 0.00 0.00 0.00 37 1018.1
20260502202526 21 309 4.8 14.5 0.00 0.00 0.00 38 1018.1
20260502202024 21 333 1.6 12.9 0.00 0.00 0.00 39 1018.3
20260502201536 21 56 6.4 12.9 0.00 0.00 0.00 37 1018.4
20260502201026 22 302 4.8 16.1 0.00 0.00 0.00 40 1018.4
20260502200524 21 26 1.6 16.1 0.00 0.00 0.00 45 1018.4
20260502200039 21 302 6.4 17.7 0.00 0.00 0.00 42 1018.4
20260502195524 21 27 4.8 17.7 0.00 0.00 0.00 40 1018.5
20260502195024 20 321 3.2 14.5 0.00 0.00 0.00 40 1018.6
20260502194535 21 311 4.8 20.9 0.00 0.00 0.00 36 1018.5
20260502194023 21 358 8.0 20.9 0.00 0.00 0.00 37 1018.6
20260502193525 21 311 8.0 17.7 0.00 0.00 0.00 37 1018.5
20260502193035 21 48 4.8 16.1 0.00 0.00 0.00 36 1018.6
20260502192527 21 49 3.2 16.1 0.00 0.00 0.00 41 1018.5
20260502192026 21 23 6.4 19.3 0.00 0.00 0.00 43 1018.6
20260502191537 21 45 6.4 19.3 0.00 0.00 0.00 38 1018.7
20260502191028 21 42 8.0 17.7 0.00 0.00 0.00 39 1018.6
20260502190524 21 51 4.8 17.7 0.00 0.00 0.00 40 1018.8
20260502190038 21 315 3.2 17.7 0.00 0.00 0.00 37 1018.8
20260502185527 21 19 4.8 17.7 0.00 0.00 0.00 44 1018.8
20260502185024 21 339 3.2 14.5 0.00 0.00 0.00 38 1018.8
20260502184538 21 120 3.2 14.5 0.00 0.00 0.00 40 1018.9
20260502184024 21 338 4.8 16.1 0.00 0.00 0.00 40 1019.1
20260502183524 20 0 4.8 19.3 0.00 0.00 0.00 38 1019.0
20260502183039 21 327 6.4 19.3 0.00 0.00 0.00 41 1019.1
20260502182527 21 27 8.0 16.1 0.00 0.00 0.00 39 1019.1
20260502182024 21 22 1.6 14.5 0.00 0.00 0.00 37 1019.2
20260502181550 20 57 6.4 14.5 0.00 0.00 0.00 37 1019.1
20260502181024 20 344 4.8 14.5 0.00 0.00 0.00 39 1019.2
20260502180524 20 314 6.4 19.3 0.00 0.00 0.00 38 1019.2
20260502164023 19 321 3.2 12.9 0.00 0.03 0.00 43 1019.7
20260502163522 19 32 3.2 20.9 0.00 0.03 0.00 43 1019.6
20260502163038 18 72 4.8 20.9 0.00 0.03 0.00 46 1019.5
20260502162523 19 22 4.8 19.3 0.00 0.03 0.00 48 1019.6
20260502162023 18 304 6.4 19.3 0.00 0.03 0.00 44 1019.6
20260502161540 18 11 8.0 16.1 0.00 0.03 0.00 47 1019.7
20260502161022 18 24 6.4 16.1 0.00 0.03 0.00 46 1019.7
20260502160522 18 44 4.8 12.9 0.00 0.03 0.00 46 1019.8
20260502152026 17 35 3.2 14.5 0.00 0.03 0.00 52 1020.0
20260502151540 17 344 4.8 14.5 0.00 0.03 0.00 53 1019.9
20260502151022 17 50 4.8 14.5 0.00 0.03 0.00 53 1019.8
20260502150522 17 35 4.8 12.9 0.00 0.03 0.00 53 1019.6
20260502130525 13 340 1.6 6.4 0.00 0.03 0.00 75 1018.5
20260502123524 12 19 0.0 4.8 0.00 0.03 0.00 81 1018.0
20260502123035 12 0 0.0 4.8 0.00 0.03 0.00 80 1018.0
20260502122524 12 336 0.0 4.8 0.00 0.03 0.00 79 1017.9
20260502122028 12 0 0.0 3.2 0.00 0.03 0.00 78 1017.8
20260502121539 12 0 0.0 3.2 0.00 0.03 0.00 78 1017.7
20260502121029 12 22 0.0 6.4 0.00 0.03 0.00 78 1017.6
20260502120525 12 0 0.0 6.4 0.00 0.03 0.00 77 1017.5
20260502115524 12 39 0.0 6.4 0.00 0.03 0.00 75 1017.4
20260502115026 12 22 3.2 4.8 0.00 0.03 0.00 75 1017.4
20260502114539 12 358 0.0 4.8 0.00 0.03 0.00 76 1017.3
20260502114024 12 0 0.0 6.4 0.00 0.03 0.00 76 1017.3
20260502113524 12 27 0.0 6.4 0.00 0.03 0.00 76 1017.2
20260502113042 12 16 1.6 6.4 0.00 0.03 0.00 75 1017.1
20260502112523 12 21 0.0 6.4 0.00 0.03 0.00 76 1017.0
20260502112024 12 349 0.0 4.8 0.00 0.03 0.00 76 1017.0
20260502111538 12 23 1.6 3.2 0.00 0.03 0.00 75 1016.9
20260502111025 12 0 0.0 3.2 0.00 0.03 0.00 76 1016.7
20260502110525 12 34 0.0 3.2 0.00 0.03 0.00 76 1016.6
20260502110042 12 0 0.0 3.2 0.00 0.03 0.00 76 1016.6
20260502105529 12 0 0.0 3.2 0.00 0.03 0.00 76 1016.5
20260502105028 12 0 0.0 1.6 0.00 0.03 0.00 77 1016.4
20260502104539 12 0 0.0 1.6 0.00 0.03 0.00 76 1016.3
20260502104024 12 0 0.0 1.6 0.00 0.03 0.00 75 1016.3
20260502103529 12 0 0.0 1.6 0.00 0.03 0.00 76 1016.3
20260502103038 12 0 0.0 1.6 0.00 0.03 0.00 75 1016.3
20260502102522 12 0 0.0 1.6 0.00 0.03 0.00 74 1016.3
20260502102022 12 0 0.0 1.6 0.00 0.03 0.00 75 1016.2
20260502101543 12 0 0.0 3.2 0.00 0.03 0.00 74 1016.1
20260502101023 13 0 0.0 3.2 0.00 0.03 0.00 73 1016.1
20260502100523 13 32 0.0 4.8 0.00 0.03 0.00 73 1016.1
20260502091023 13 0 1.6 6.4 0.00 0.03 0.00 75 1015.6
20260502090524 13 53 1.6 6.4 0.00 0.03 0.00 74 1015.6
20260502071535 13 0 0.0 3.2 0.00 0.03 0.00 76 1015.8
20260502071024 13 0 0.0 3.2 0.00 0.03 0.00 77 1015.9
20260502070525 13 0 0.0 3.2 0.00 0.03 0.00 77 1016.2
20260502070037 13 0 0.0 3.2 0.00 0.03 0.00 77 1016.0
20260502065525 13 0 0.0 4.8 0.00 0.03 0.00 77 1015.9
20260502065027 13 35 0.0 6.4 0.00 0.03 0.00 76 1015.8
20260502064554 13 31 0.0 9.7 0.00 0.03 0.00 76 1015.5
20260502064028 13 54 1.6 9.7 0.00 0.03 0.00 76 1015.3
20260502063527 13 30 1.6 8.0 0.00 0.03 0.00 77 1015.3
20260502063039 13 0 1.6 6.4 0.00 0.03 0.00 76 1015.5
20260502062527 13 0 0.0 1.6 0.00 0.03 0.00 76 1015.9
20260502062025 13 0 0.0 1.6 0.00 0.03 0.00 77 1016.3
20260502061535 13 355 0.0 1.6 0.00 0.03 0.00 76 1016.5
20260502061024 13 0 0.0 3.2 0.00 0.03 0.00 77 1016.6
20260502060524 13 0 0.0 3.2 0.00 0.03 0.00 77 1016.8
20260502060040 13 0 0.0 3.2 0.00 0.03 0.00 77 1016.5
20260502055525 13 21 0.0 3.2 0.00 0.03 0.00 77 1016.3
20260502055025 13 19 0.0 3.2 0.00 0.03 0.00 77 1016.6
20260502054542 13 0 0.0 1.6 0.00 0.03 0.00 76 1016.5
20260502054025 13 0 0.0 3.2 0.00 0.03 0.00 76 1016.8
20260502053525 13 0 0.0 3.2 0.00 0.03 0.00 76 1016.8
20260502053041 13 0 0.0 3.2 0.00 0.03 0.00 76 1016.5
20260502052528 13 34 0.0 3.2 0.00 0.03 0.00 75 1016.4
20260502052025 14 0 0.0 3.2 0.00 0.03 0.00 75 1016.5
20260502051539 14 63 0.0 1.6 0.00 0.03 0.00 75 1016.3
20260502051024 14 0 0.0 4.8 0.00 0.03 0.00 74 1016.7
20260502050526 14 0 0.0 8.0 0.00 0.03 0.00 74 1016.9
20260502050039 14 0 0.0 8.0 0.00 0.03 0.00 73 1016.5
20260502045525 14 19 0.0 1.6 0.00 0.03 0.03 74 1016.8
20260502045025 14 0 0.0 1.6 0.00 0.03 0.03 75 1016.8
20260502044540 14 0 0.0 1.6 0.00 0.03 0.03 75 1016.6
20260502044025 14 0 0.0 3.2 0.00 0.03 0.03 75 1016.7
20260502043524 14 0 0.0 3.2 0.00 0.03 0.03 75 1016.7
20260502043038 14 0 0.0 3.2 0.00 0.03 0.03 74 1016.4
20260502042523 15 308 0.0 6.4 0.00 0.03 0.03 75 1016.2
20260502042024 15 0 0.0 11.3 0.00 0.03 0.03 75 1016.2
20260502041536 15 0 1.6 11.3 0.00 0.03 0.03 76 1015.9
20260502041024 15 359 1.6 11.3 0.00 0.03 0.03 76 1015.8
20260502040525 15 0 1.6 4.8 0.00 0.03 0.03 78 1015.7
20260502040045 15 0 0.0 3.2 0.00 0.03 0.03 79 1015.7
20260502035525 15 0 0.0 4.8 0.00 0.03 0.03 79 1015.6
20260502035025 15 0 0.0 4.8 0.00 0.03 0.03 80 1015.4
20260502034538 15 39 0.0 4.8 0.00 0.03 0.03 80 1015.4
20260502034023 15 344 0.0 6.4 0.00 0.03 0.03 82 1015.2
20260502033526 15 343 1.6 6.4 0.00 0.03 0.03 83 1015.3
20260502033037 15 0 0.0 1.6 0.00 0.03 0.03 85 1015.4
20260502032525 14 0 0.0 0.0 0.00 0.03 0.03 86 1015.5
20260502032025 14 0 0.0 0.0 0.00 0.03 0.03 86 1015.6
20260502031545 14 0 0.0 1.6 0.00 0.03 0.03 86 1015.4
20260502031024 14 0 0.0 1.6 0.00 0.03 0.03 86 1015.2
20260502030525 14 20 0.0 1.6 0.00 0.03 0.03 86 1015.2
20260502030038 14 0 0.0 0.0 0.00 0.03 0.03 87 1015.2
20260502025525 14 0 0.0 0.0 0.00 0.03 0.03 87 1015.2
20260502025022 14 0 0.0 1.6 0.00 0.03 0.03 87 1015.2
20260502024538 14 0 0.0 1.6 0.00 0.03 0.03 89 1014.9
20260502024023 13 0 0.0 1.6 0.00 0.03 0.03 90 1015.0
20260502023527 13 0 0.0 1.6 0.00 0.03 0.03 91 1015.0
20260502023039 13 0 0.0 1.6 0.00 0.03 0.03 91 1015.0
20260502022523 13 0 0.0 1.6 0.00 0.03 0.03 92 1015.0
20260502022024 13 0 0.0 1.6 0.00 0.03 0.03 92 1014.8
20260502021539 13 0 0.0 0.0 0.00 0.03 0.03 91 1014.9
20260502021022 13 0 0.0 0.0 0.00 0.03 0.03 91 1015.1
20260502020525 13 0 0.0 0.0 0.00 0.03 0.03 91 1015.2
20260502020035 13 0 0.0 0.0 0.00 0.03 0.03 91 1015.2
20260502015525 13 0 0.0 0.0 0.00 0.03 0.03 90 1015.3
20260502015026 13 0 0.0 0.0 0.00 0.03 0.03 90 1015.4
20260502014547 13 0 0.0 0.0 0.00 0.03 0.03 90 1015.3
20260502014025 13 0 0.0 0.0 0.00 0.03 0.03 88 1015.2
20260502013525 13 0 0.0 0.0 0.00 0.03 0.03 88 1015.0
20260502013037 13 0 0.0 0.0 0.00 0.03 0.03 88 1015.0
20260502012524 14 0 0.0 0.0 0.00 0.03 0.03 88 1015.3
20260502012023 14 0 0.0 0.0 0.00 0.03 0.03 89 1015.3
20260502011536 14 0 0.0 0.0 0.00 0.03 0.03 88 1015.4
20260502011024 14 0 0.0 0.0 0.00 0.03 0.03 88 1015.5
20260502010523 14 0 0.0 0.0 0.00 0.03 0.03 87 1015.4
20260502010038 14 0 0.0 0.0 0.00 0.03 0.03 87 1015.3
20260502005525 14 0 0.0 1.6 0.00 0.03 0.03 87 1015.2
20260502005026 14 0 0.0 1.6 0.00 0.03 0.03 86 1015.3
20260502004538 14 0 0.0 0.0 0.00 0.03 0.03 85 1015.3
20260502004023 14 0 0.0 0.0 0.00 0.03 0.03 85 1015.1
20260502003526 15 0 0.0 1.6 0.00 0.03 0.03 84 1015.0
20260502003037 15 0 0.0 1.6 0.00 0.03 0.03 83 1015.0
20260502002524 15 0 0.0 1.6 0.00 0.03 0.03 82 1015.0
20260502002023 15 0 0.0 1.6 0.00 0.03 0.03 81 1014.9
20260502001555 15 0 0.0 1.6 0.00 0.03 0.03 81 1014.8
20260502001025 15 0 0.0 1.6 0.00 0.03 0.03 81 1014.7
20260502000525 15 0 0.0 1.6 0.00 0.03 0.03 82 1014.6
20260502000037 15 0 0.0 1.6 0.00 0.03 0.03 81 1014.6
20260501235523 15 0 0.0 1.6 0.00 0.03 0.03 81 1014.5
20260501235025 15 0 0.0 1.6 0.00 0.03 0.03 79 1014.6
20260501234539 15 0 0.0 0.0 0.00 0.03 0.03 79 1014.6
20260501234025 15 0 0.0 1.6 0.00 0.03 0.03 76 1014.7
20260501233523 15 0 0.0 1.6 0.00 0.03 0.03 76 1014.7
20260501233040 15 0 0.0 1.6 0.00 0.03 0.03 74 1014.6
20260501232528 15 0 0.0 1.6 0.00 0.03 0.03 75 1014.6
20260501232024 15 0 0.0 3.2 0.00 0.03 0.03 75 1014.7
20260501231540 15 0 0.0 3.2 0.00 0.03 0.03 74 1014.6
20260501231023 15 58 0.0 3.2 0.00 0.03 0.03 73 1014.5
20260501230524 15 44 0.0 3.2 0.00 0.03 0.03 73 1014.4
20260501230039 15 23 0.0 3.2 0.00 0.03 0.03 73 1014.2
20260501225525 15 0 0.0 6.4 0.00 0.03 0.03 74 1013.8
20260501225024 16 0 1.6 11.3 0.00 0.03 0.03 73 1013.7
20260501224555 16 51 1.6 11.3 0.00 0.03 0.03 71 1013.3